Simultaneous Nadir Overpasses (SNOs) Predictions

Prediction of SNOs between METOP-A and NOAA-19 Satellite Orbit:

Table of predicted SNOs for the next 14.0 days since TLE Epoch: 4/7/2012
Index Date (METOP-A) Time (METOP-A) METOP-A Lat,Lon Date (NOAA-19) Time (NOAA-19) NOAA-19 Lat,Lon Distance(km) Time Diff (sec)
1 04/17/2012 04:35:05 73.08, 103.83 04/17/2012 04:33:53 73.10, 103.88 2.62 72
2 04/17/2012 05:25:46 -73.11, -88.77 04/17/2012 05:24:50 -73.10, -88.86 3.01 56
3 04/17/2012 06:16:27 73.06, 78.44 04/17/2012 06:15:58 73.08, 78.40 2.99 29
4 04/17/2012 07:07:09 -73.04,-114.27 04/17/2012 07:06:54 -73.03,-114.24 1.17 15
5 04/17/2012 07:57:49 73.03, 53.06 04/17/2012 07:58:02 73.01, 53.03 2.53 13
6 04/17/2012 08:48:31 -73.01,-139.66 04/17/2012 08:48:59 -73.02,-139.72 2.09 28
7 04/17/2012 09:39:12
